Flag for Germany Weather past 2 weeks in Friedrichshafen, Baden-Württemberg, Germany

Now
77 °F

Passing clouds.


Feels Like: 78 °F
Forecast: 53 / 84 °F
Wind: 8 mph from Northeast

Location: Friedrichshafen Airport

Current Time: Aug 2, 2015 at 5:12:15 PM

Latest Report: Aug 2, 2015 at 4:50 PM


Visibility: N/A

Pressure: 30.09 "Hg

Humidity: 36%

Dew point: 48 °F

Location of FriedrichshafenLocation

Historic Weather in Friedrichshafen — Graph

°F

Friedrichshafen temperature yesterday

Maximum temperature yesterday: 70 °F (at 3:50 PM)
Minimum temperature yesterday: 55 °F (at 4:50 AM)
Average temperature yesterday: 62 °F

Past Weeks' High & Low Weather Summary

 TemperatureHumidityPressure
High91 °F (Jul 22, 4:20 PM)88% (Jul 19, 1:50 AM)30.15 "Hg (Jul 19, 1:50 AM)
Low46 °F (Jul 30, 5:50 AM)26% (Jul 21, 5:50 PM)29.74 "Hg (Jul 24, 6:20 PM)
Average68 °F61%29.97 "Hg
* Reported Jul 18 3:20 PM — Aug 2 3:50 PM, Friedrichshafen, Weather by CustomWeather, © 2015

Note: Actual official high and low records may vary slightly from our data, if they occured in-between our weather recording intervals... More about our weather records

Advertising

Friedrichshafen weather history for previous 24 hours

 ConditionsComfort  
Time TempWeatherWind HumidityBarometerVisibility
3:50 PM
Sun, Aug 2
77 °FPassing clouds.8 mph36%30.09 "HgN/A
3:20 PM77 °FScattered clouds.6 mph39%30.09 "HgN/A
2:50 PM77 °FPassing clouds.3 mph42%30.09 "HgN/A
2:20 PM72 °FBroken clouds.7 mph57%30.12 "HgN/A
1:50 PM72 °FScattered clouds.9 mph57%30.12 "HgN/A
1:20 PM72 °FScattered clouds.10 mph57%30.12 "HgN/A
12:50 PM72 °FPassing clouds.8 mph53%30.12 "HgN/A
12:20 PM70 °FScattered clouds.6 mph60%30.15 "HgN/A
11:50 AM68 °FScattered clouds.7 mph64%30.15 "HgN/A
11:20 AM70 °FScattered clouds.3 mph60%30.15 "HgN/A
10:50 AM68 °FScattered clouds.5 mph69%30.15 "HgN/A
10:20 AM68 °FPartly sunny.5 mph64%30.15 "HgN/A
9:50 AM66 °FPartly sunny.3 mph68%30.15 "HgN/A
9:20 AM66 °FLow clouds.1 mph73%30.15 "HgN/A
8:50 AM64 °FPartly sunny.2 mph78%30.15 "Hg5 mi
8:20 AM63 °FOvercast.2 mph83%30.12 "HgN/A
7:50 AM61 °FClear.2 mph88%30.12 "Hg4 mi
7:20 AM61 °FClear.2 mph88%30.12 "Hg3 mi
6:50 AM61 °FFog.No wind88%30.12 "Hg2 mi
6:20 AM61 °FOvercast.1 mph88%30.12 "Hg5 mi
5:50 AM61 °FOvercast.No wind88%30.09 "Hg5 mi
4:50 AM63 °FFog.2 mph83%30.09 "Hg2 mi
4:20 AM63 °FFog.No wind83%30.09 "Hg2 mi
4:01 AM63 °FMild.No wind83%30.09 "Hg2 mi
3:20 AM63 °FFog.2 mph83%30.09 "Hg3 mi
2:50 AM63 °FMostly cloudy.No wind83%30.09 "Hg3 mi
2:20 AM63 °FMostly cloudy.2 mph83%30.07 "Hg4 mi
1:50 AM63 °FOvercast.2 mph83%30.07 "HgN/A
1:20 AM63 °FOvercast.3 mph77%30.07 "HgN/A
12:50 AM63 °FOvercast.3 mph83%30.07 "Hg4 mi
11:50 PM
Sat, Aug 1
63 °FOvercast.2 mph77%30.07 "HgN/A
11:20 PM63 °FMostly cloudy.1 mph77%30.07 "HgN/A
10:50 PM63 °FMild.1 mph77%30.07 "HgN/A
10:20 PM64 °FOvercast.3 mph68%30.07 "HgN/A
9:20 PM64 °FOvercast.2 mph68%30.04 "HgN/A
8:50 PM64 °FSunny.2 mph68%30.04 "Hg10 mi
8:20 PM66 °FSunny.7 mph64%30.04 "Hg10 mi
7:50 PM66 °FSunny.7 mph64%30.01 "Hg10 mi
7:20 PM68 °FSunny.7 mph60%30.01 "Hg10 mi
6:50 PM70 °FSunny.1 mph57%30.01 "Hg10 mi
6:20 PM68 °FSunny.3 mph56%30.01 "Hg10 mi
5:50 PM68 °FSunny.3 mph56%30.01 "Hg10 mi
5:20 PM68 °FSunny.6 mph56%30.01 "Hg10 mi
Weather by CustomWeather, © 2015

See weather overviewHow to use our weather pages